User: anonymous   Login
Location: Unspecified
(0.0000°N, 0.0000°E)
Time: 21:05:27
(UTC+00:00)
Language:

KUIPER-00103 - Orbit

View from above orbital plane
View from above orbital plane
View from above satellite
View from above satellite

Ground track
Ground track

The orbit is defined by the following mean orbital elements,

1 65141U          26145.41159522 +.00000000 +00000-0 +86133-4 0 00002
2 65141  51.8975 191.2966 0000333  87.1890 272.9111 14.79933132    05
Epoch (UTC): 25 May 2026 09:52:41
Eccentricity: 0.0000333
inclination: 51.8975°
perigee height: 629 km
apogee height: 630 km
right ascension of ascending node: 191.2966°
argument of perigee: 87.1890°
revolutions per day: 14.79933132
mean anomaly at epoch: 272.9111°

The dashed part of the orbit path shows where the satellite is in the earth's shadow,  

DLR